[[{"header":{"parameterUnit":"m.s-1","parameterCategory":1,"la1":30.2991,"la2":30.254,"lo1":-89.0895,"lo2":-89.0444,"dy":0.0017,"dx":0.0017,"nx":28,"ny":28,"refTime":"2024-04-27T21:00:00:Z","depth":0,"parameterNumber":2,"parameterNumberName":"U-component_of_WINDS"},"data":[0,0,0,0,0,0,0,0,0,0,0,0,0,0,0,0,0,0,0,0,0,0,0,0,0,0,0,0,0,0,0,0,0,0,0,0,0,0,0,0,0,0,0,0,0,0,0,0,0,0,0,0,0,0,0,0,0,0,-7.1581,-7.1583,0,-7.1728,-7.173,-7.1731,-7.1732,-7.173,-7.1728,-7.1726,-7.187,-7.1876,-7.1881,0,0,0,0,0,0,0,0,0,0,0,0,0,-7.1297,-7.1303,-7.1581,-7.1583,-7.1585,-7.1728,-7.173,-7.1732,-7.1732,-7.173,-7.1728,-7.1725,-7.1869,-7.1875,-7.1882,0,0,0,0,0,0,0,0,0,0,0,0,0,-7.143,-7.1304,-7.1581,-7.1602,-7.1606,-7.1727,-7.173,-7.1732,-7.1733,-7.173,-7.1727,-7.1724,-7.1866,-7.1875,-7.1883,-7.1991,0,0,-7.1908,-7.1912,0,0,0,0,0,0,0,0,-7.1422,-7.144,-7.1597,-7.1601,-7.1605,-7.1709,-7.1683,-7.1819,-7.1733,-7.1684,-7.1726,-7.1723,-7.1819,-7.1831,-7.1864,-7.1998,-7.2004,-7.1909,-7.1914,-7.1918,-7.192,0,0,0,0,0,0,0,-7.1413,-7.1434,-7.1639,-7.16,-7.1604,-7.1604,-7.1619,-7.1709,-7.1765,-7.1688,-7.1689,-7.1706,-7.182,-7.1856,-7.1868,-7.2006,-7.1909,-7.1916,-7.1922,-7.1925,-7.2237,-7.224,0,0,0,0,0,0,-7.14,-7.1426,-7.1634,-7.1643,-7.1505,-7.1611,-7.1629,-7.1678,-7.1764,-7.1775,-7.1709,-7.1706,-7.1843,-7.1858,-7.1873,-7.2005,-7.1918,-7.1926,-7.1931,-7.2234,-7.2238,-7.2241,0,0,0,0,0,0,-7.1394,-7.1419,-7.1628,-7.1535,-7.1562,-7.1619,-7.1675,-7.1683,-7.1719,-7.178,-7.1789,-7.1735,-7.1842,-7.1861,-7.1962,-7.201,-7.1929,-7.1937,-7.223,-7.2235,-7.2239,-7.2269,0,0,0,0,0,0,-7.1386,-7.1417,-7.1459,-7.1536,-7.1567,-7.1716,-7.1678,-7.1688,-7.1734,-7.1732,-7.1807,-7.1817,-7.1841,-7.195,-7.1971,-7.202,-7.1944,-7.2226,-7.2232,-7.2238,-7.2264,-7.2275,-7.2283,0,0,0,0,0,-7.1376,-7.146,-7.1461,-7.1486,-7.1621,-7.1719,-7.1737,-7.1764,-7.1738,-7.178,-7.182,-7.1815,-7.2002,-7.196,-7.1984,-7.2036,-7.2223,-7.223,-7.2237,-7.226,-7.2273,-7.2283,0,0,0,0,0,0,-7.1383,-7.147,-7.1472,-7.1584,-7.1645,-7.1719,-7.1773,-7.1776,-7.1844,-7.1838,-7.1868,-7.1886,-7.1986,-7.2022,-7.1974,-7.2146,-7.2109,-7.2121,-7.2118,-7.2131,-7.214,-7.2128,-7.1951,0,0,0,0,0,-7.1399,-7.1473,-7.1544,-7.1636,-7.1667,-7.1715,-7.1759,-7.1775,-7.1838,-7.1863,-7.191,-7.197,-7.2043,-7.2089,-7.2159,-7.2271,-7.2287,-7.2319,-7.2329,-7.2336,-7.2345,-7.2407,-7.2422,-7.2265,-7.2265,-7.2265,0,0,-7.1429,-7.1486,-7.153,-7.1639,-7.1687,-7.1762,-7.1736,-7.1816,-7.1871,-7.1874,-7.1973,-7.201,-7.2079,-7.2187,-7.2236,-7.2219,-7.2393,-7.2346,-7.2351,-7.2356,-7.2416,-7.2431,-7.2444,-7.227,-7.2269,-7.2268,0,0,-7.1523,-7.1574,-7.1656,-7.1707,-7.1783,-7.1815,-7.1835,-7.1911,-7.1936,-7.2037,-7.2041,-7.2107,-7.2232,-7.2281,-7.2322,-7.244,-7.2437,-7.2462,-7.251,-7.257,-7.2582,-7.2593,-7.2634,-7.2648,-7.2472,-7.2472,-7.2472,0,-7.155,-7.1665,-7.1697,-7.1779,-7.1826,-7.1837,-7.1919,-7.1966,-7.206,-7.2092,-7.2073,-7.2231,-7.2278,-7.2397,-7.2426,-7.246,-7.2482,-7.2451,-7.2579,-7.259,-7.2601,-7.2639,-7.2655,-7.2474,-7.2474,-7.2473,-7.2473,0,-7.1695,-7.1774,-7.1832,-7.1925,-7.1979,-7.206,-7.2105,-7.2156,-7.2169,-7.2203,-7.2306,-7.2364,-7.2446,-7.2477,-7.2489,-7.2598,-7.2585,-7.2573,-7.2535,-7.2617,-7.2654,-7.2669,-7.2477,-7.2476,-7.2476,-7.2475,0,0,-7.1792,-7.1906,-7.1926,-7.1969,-7.2055,-7.2117,-7.2199,-7.2283,-7.2325,-7.2391,-7.246,-7.2567,-7.2557,-7.2604,-7.2623,-7.2676,-7.2764,-7.2657,-7.2659,-7.2672,-7.2886,-7.2893,-7.291,-7.2765,-7.2768,-7.2771,-7.288,0,-7.1893,-7.2041,-7.2075,-7.2201,-7.2275,-7.2289,-7.2361,-7.2421,-7.2456,-7.2523,-7.2562,-7.2637,-7.2618,-7.2647,-7.2701,-7.2742,-7.2807,-7.2735,-7.2827,-7.283,-7.2806,-7.2929,-7.2936,-7.3036,-7.2895,-7.2897,-7.2899,0,-7.2029,-7.2101,-7.2236,-7.2315,-7.2347,-7.2411,-7.2491,-7.2555,-7.2624,-7.2647,-7.2702,-7.2716,-7.2802,-7.2764,-7.2882,-7.2833,-7.2873,-7.29,-7.2904,-7.2911,-7.2866,-7.2936,-7.3069,-7.3083,-7.2922,-7.292,-7.2919,0,-7.2084,-7.2215,-7.2313,-7.2349,-7.2444,-7.2489,-7.253,-7.2597,-7.2645,-7.2716,-7.2747,-7.2826,-7.2868,-7.2928,-7.2963,-7.2933,-7.3078,-7.3044,-7.3097,-7.3096,-7.3123,-7.312,-7.3261,-7.3155,-7.3155,-7.3155,-7.3154,0,-7.2192,-7.2273,-7.2339,-7.2398,-7.249,-7.2529,-7.2618,-7.2659,-7.272,-7.2787,-7.2804,-7.2866,-7.2911,-7.2979,-7.3008,-7.31,-7.312,-7.3139,-7.3145,-7.3135,-7.3133,-7.3159,-7.3152,-7.3159,-7.3158,-7.3157,-7.3156,0,-7.2266,-7.2314,-7.2421,-7.2504,-7.2527,-7.259,-7.266,-7.2718,-7.2757,-7.2841,-7.2864,-7.2922,-7.3004,-7.3047,-7.3148,-7.3168,-7.3271,-7.3275,-7.3248,-7.325,-7.33,-7.3294,-7.346,-7.3483,-7.3364,-7.3365,-7.3366,0,-7.233,-7.2393,-7.2484,-7.2531,-7.2574,-7.265,-7.2701,-7.2743,-7.2794,-7.288,-7.2928,-7.3012,-7.308,-7.3211,-7.3261,-7.3339,-7.3343,-7.3396,-7.3354,-7.3343,-7.3341,-7.3335,-7.3341,-7.3402,-7.3403,-7.3404,-7.3405,0,-7.2437,-7.2458,-7.2532,-7.2614,-7.2675,-7.2742,-7.2807,-7.2845,-7.2897,-7.2955,-7.304,-7.3094,-7.32,-7.3282,-7.3365,-7.3406,-7.3414,-7.3419,-7.3434,-7.3423,-7.3405,-7.3414,-7.3265,-7.3413,-7.3412,-7.3412,-7.3411,-7.3411,-7.2506,-7.2563,-7.2637,-7.2718,-7.2773,-7.2835,-7.2894,-7.2941,-7.3014,-7.3104,-7.3125,-7.3215,-7.3284,-7.3397,-7.3441,-7.3512,-7.35,-7.3524,-7.3529,-7.3534,-7.3535,-7.3397,-7.3527,-7.3527,-7.3527,-7.3527,-7.3527,0,-7.2612,-7.2661,-7.2737,-7.2829,-7.2894,-7.29,-7.2973,-7.3026,-7.3106,-7.3171,-7.324,-7.3338,-7.3419,-7.3479,-7.3561,-7.3606,-7.3611,-7.3626,-7.3621,-7.363,-7.3541,-7.3518,-7.362,-7.362,-7.362,-7.362,-7.362,-7.362,-7.2675,-7.2772,-7.2803,-7.2927,-7.2976,-7.3065,-7.3107,-7.3164,-7.3216,-7.3326,-7.3395,-7.3434,-7.3497,-7.3585,-7.3659,-7.3675,-7.3703,-7.3717,-7.3732,-7.3646,-7.3636,-7.3627,-7.3605,-7.3723,-7.3723,-7.3814,-7.3815,-7.3816]},{"header":{"parameterUnit":"m.s-1","parameterCategory":1,"la1":30.2991,"la2":30.254,"lo1":-89.0895,"lo2":-89.0444,"dy":0.0017,"dx":0.0017,"nx":28,"ny":28,"refTime":"2024-04-27T21:00:00:Z","depth":0,"parameterNumber":3,"parameterNumberName":"V-component_of_WINDS"},"data":[0,0,0,0,0,0,0,0,0,0,0,0,0,0,0,0,0,0,0,0,0,0,0,0,0,0,0,0,0,0,0,0,0,0,0,0,0,0,0,0,0,0,0,0,0,0,0,0,0,0,0,0,0,0,0,0,0,0,5.38,5.38,0,5.3802,5.3802,5.3802,5.3797,5.3797,5.3797,5.3797,5.3791,5.3791,5.3791,0,0,0,0,0,0,0,0,0,0,0,0,0,5.3789,5.3789,5.38,5.38,5.38,5.3802,5.3802,5.3802,5.3797,5.3797,5.3797,5.3797,5.3791,5.3791,5.3791,0,0,0,0,0,0,0,0,0,0,0,0,0,5.3792,5.3789,5.38,5.3798,5.3798,5.3802,5.3802,5.3802,5.3797,5.3797,5.3797,5.3797,5.3791,5.3791,5.3791,5.3794,0,0,5.3791,5.3791,0,0,0,0,0,0,0,0,5.3792,5.3792,5.3799,5.3798,5.3798,5.3799,5.3795,5.3799,5.3797,5.3797,5.3797,5.3797,5.3793,5.3793,5.3794,5.3794,5.3793,5.3791,5.3791,5.3791,5.3791,0,0,0,0,0,0,0,5.3792,5.3792,5.38,5.3799,5.3799,5.3796,5.3796,5.3796,5.3796,5.3797,5.3797,5.3798,5.3793,5.3794,5.3793,5.3793,5.3791,5.3791,5.3791,5.3791,5.3798,5.3798,0,0,0,0,0,0,5.3793,5.3792,5.38,5.38,5.3795,5.3796,5.3797,5.3799,5.3796,5.3796,5.3798,5.3798,5.3794,5.3793,5.3793,5.3798,5.3791,5.3791,5.3791,5.3798,5.3798,5.3798,0,0,0,0,0,0,5.3792,5.3793,5.38,5.3796,5.3797,5.3797,5.3799,5.3799,5.38,5.3797,5.3796,5.3799,5.3794,5.3793,5.3795,5.3798,5.3791,5.379,5.3798,5.3798,5.3798,5.3806,0,0,0,0,0,0,5.3792,5.3793,5.3795,5.3797,5.3797,5.3803,5.38,5.3799,5.38,5.38,5.3797,5.3796,5.3794,5.3795,5.3795,5.3797,5.379,5.3797,5.3798,5.3798,5.3806,5.3807,5.3808,0,0,0,0,0,5.3792,5.3795,5.3795,5.3796,5.38,5.3803,5.3804,5.3802,5.3801,5.3802,5.3801,5.3796,5.3798,5.3795,5.3795,5.3797,5.3797,5.3798,5.3798,5.3805,5.3807,5.3808,0,0,0,0,0,0,5.379,5.3795,5.3795,5.38,5.3802,5.3803,5.3804,5.3804,5.3804,5.3803,5.38,5.3799,5.3801,5.3799,5.3797,5.3801,5.3797,5.3797,5.3802,5.3804,5.3805,5.3805,5.379,0,0,0,0,0,5.3791,5.3796,5.3799,5.3802,5.3804,5.3804,5.3805,5.3805,5.3806,5.3805,5.3804,5.3803,5.3804,5.3804,5.3803,5.3806,5.3806,5.3808,5.3809,5.381,5.381,5.3813,5.3814,5.38,5.38,5.38,0,0,5.3791,5.3795,5.3797,5.3802,5.3803,5.3807,5.3804,5.3807,5.3809,5.3805,5.3808,5.3807,5.3806,5.3809,5.3809,5.3807,5.3814,5.3811,5.3811,5.3811,5.3814,5.3815,5.3816,5.3801,5.3801,5.3801,0,0,5.3794,5.3797,5.3802,5.3805,5.3808,5.3809,5.3811,5.3813,5.3813,5.3816,5.3814,5.3816,5.3816,5.3816,5.3816,5.3824,5.382,5.3824,5.3829,5.3832,5.3833,5.3834,5.3837,5.3838,5.3824,5.3824,5.3824,0,5.3794,5.3801,5.3803,5.3808,5.3811,5.3811,5.3815,5.3817,5.3819,5.382,5.3818,5.3821,5.382,5.3824,5.3826,5.3826,5.3827,5.3823,5.3833,5.3834,5.3835,5.3838,5.3839,5.3825,5.3825,5.3824,5.3824,0,5.38,5.3805,5.3808,5.3815,5.3818,5.3822,5.3824,5.3827,5.3827,5.3828,5.3832,5.3832,5.3833,5.3834,5.3832,5.3838,5.3837,5.3834,5.3829,5.3837,5.3839,5.3841,5.3825,5.3825,5.3825,5.3825,0,0,5.3799,5.3811,5.3812,5.3816,5.3822,5.3825,5.3829,5.3834,5.3836,5.3839,5.3842,5.3845,5.3844,5.3844,5.3843,5.3845,5.3853,5.3842,5.3842,5.3845,5.386,5.3862,5.3864,5.3852,5.3852,5.3852,5.3861,0,5.3803,5.3814,5.3818,5.3826,5.3831,5.3834,5.3838,5.3841,5.3843,5.3847,5.3848,5.385,5.3848,5.3848,5.3851,5.3852,5.3856,5.3851,5.3854,5.3854,5.3854,5.3865,5.3866,5.3875,5.3862,5.3862,5.3862,0,5.3808,5.3815,5.3824,5.3833,5.3835,5.3839,5.3845,5.3849,5.3853,5.3854,5.3857,5.3857,5.3861,5.3858,5.3864,5.386,5.3862,5.3862,5.3863,5.3862,5.3858,5.3865,5.3877,5.3878,5.3864,5.3864,5.3864,0,5.3807,5.3818,5.3826,5.383,5.3839,5.3842,5.3846,5.3851,5.3854,5.3859,5.3861,5.3865,5.3867,5.3869,5.387,5.3867,5.3876,5.3872,5.3877,5.3877,5.3877,5.3877,5.389,5.3879,5.3879,5.3879,5.3879,0,5.381,5.3816,5.3827,5.3831,5.3839,5.3844,5.385,5.3853,5.3858,5.3863,5.3864,5.3868,5.3869,5.3874,5.3874,5.388,5.388,5.3881,5.388,5.388,5.388,5.388,5.388,5.3879,5.3879,5.3879,5.3879,0,5.381,5.3817,5.3826,5.3837,5.3839,5.3844,5.3852,5.3856,5.386,5.3866,5.3868,5.3872,5.3878,5.388,5.3885,5.3885,5.3892,5.3891,5.3891,5.3891,5.3896,5.3895,5.3908,5.3911,5.3899,5.3899,5.3899,0,5.3811,5.3817,5.3829,5.3834,5.3839,5.3846,5.3851,5.3857,5.3861,5.3869,5.3872,5.3879,5.3884,5.3892,5.3895,5.3899,5.3899,5.3903,5.3899,5.39,5.3899,5.3899,5.39,5.3903,5.3904,5.3904,5.3904,0,5.3813,5.3818,5.3826,5.3836,5.3843,5.385,5.3857,5.3861,5.3868,5.3873,5.388,5.3885,5.3893,5.3899,5.3904,5.3906,5.3906,5.3906,5.3907,5.3906,5.3906,5.3907,5.3893,5.3905,5.3905,5.3905,5.3905,5.3904,5.3814,5.382,5.3831,5.384,5.3847,5.3855,5.3861,5.3867,5.3874,5.3883,5.3885,5.3893,5.39,5.3908,5.3911,5.3916,5.3915,5.3916,5.3917,5.3917,5.3918,5.3907,5.3917,5.3917,5.3917,5.3917,5.3917,0,5.3816,5.3825,5.3834,5.3846,5.3854,5.3857,5.3866,5.3872,5.388,5.3887,5.3894,5.3903,5.391,5.3915,5.3922,5.3925,5.3925,5.3927,5.3926,5.3927,5.3918,5.3917,5.3927,5.3927,5.3927,5.3927,5.3927,5.3927,5.3819,5.383,5.3836,5.385,5.3858,5.3868,5.3873,5.388,5.3887,5.3898,5.3905,5.391,5.3916,5.3924,5.3931,5.3932,5.3934,5.3936,5.3937,5.3928,5.3927,5.3926,5.3925,5.3936,5.3936,5.3945,5.3945,5.3945]}]]